H1 CPF  1  SGF 2018 11  9  2  8131 beaconc              
H2  6503201  317    01328 2018 11  8  0  0  0 2018 11 13 23 57  0   180 1 1  0 0 0
H9
10 0 58431  41400.00000  0    221716.444  -6049818.515   4681370.850
10 0 58431  41580.00000  0   1361999.626  -6164679.818   4292912.451
10 0 58431  41760.00000  0   2461980.519  -6131610.678   3779969.968
10 0 58431  41940.00000  0   3493265.564  -5948506.944   3156419.648
10 0 58431  42120.00000  0   4428740.954  -5616675.741   2439532.018
10 0 58431  42300.00000  0   5243241.841  -5141048.977   1649664.231
10 0 58431  42480.00000  0   5914255.400  -4530338.172    809838.938
10 0 58431  42660.00000  0   6422638.546  -3797101.297    -54802.836
10 0 58431  42840.00000  0   6753321.878  -2957692.009   -917680.053
10 0 58431  43020.00000  0   6895959.599  -2032061.427  -1751577.776
10 0 58431  43200.00000  0   6845475.487  -1043391.121  -2529560.168
10 0 58431  43380.00000  0   6602456.473    -17548.235  -3225956.188
10 0 58431  43560.00000  0   6173345.231   1017634.351  -3817370.092
10 0 58431  43740.00000  0   5570393.015   2033229.504  -4283657.934
10 0 58431  43920.00000  0   4811350.879   3000199.781  -4608804.971
10 0 58431  44100.00000  0   3918899.400   3890440.672  -4781640.023
10 0 58431  44280.00000  0   2919840.681   4677819.427  -4796333.303
10 0 58431  44460.00000  0   1844096.591   5339145.901  -4652643.356
10 0 58431  44640.00000  0    723572.325   5855013.734  -4355893.772
10 0 58431  44820.00000  0   -409039.763   6210463.542  -3916686.499
10 0 58431  45000.00000  0  -1521443.983   6395435.875  -3350378.240
10 0 58431  45180.00000  0  -2582841.888   6404997.543  -2676364.311
10 0 58431  45360.00000  0  -3564891.667   6239349.686  -1917228.660
10 0 58431  45540.00000  0  -4442491.144   5903641.981  -1097819.045
10 0 58431  45720.00000  0  -5194365.958   5407624.283   -244302.269
10 0 58431  45900.00000  0  -5803458.433   4765173.131    616751.897
10 0 58431  46080.00000  0  -6257128.362   3993735.777   1459218.148
10 0 58431  46260.00000  0  -6547189.940   3113729.190   2258167.744
10 0 58431  46440.00000  0  -6669815.780   2147928.151   2990510.387
10 0 58431  46620.00000  0  -6625342.319   1120866.406   3635525.770
10 0 58431  46800.00000  0  -6418006.363     58264.191   4175290.706
10 0 58431  46980.00000  0  -6055639.922  -1013510.800   4595012.159
10 0 58431  47160.00000  0  -5549344.233  -2067950.988   4883280.408
10 0 58431  47340.00000  0  -4913155.626  -3078891.477   5032254.786
10 0 58431  47520.00000  0  -4163709.921  -4020977.061   5037792.272
10 0 58431  47700.00000  0  -3319905.807  -4870123.029   4899525.596
10 0 58431  47880.00000  0  -2402564.280  -5603978.726   4620893.589
10 0 58431  48060.00000  0  -1434077.582  -6202402.463   4209122.486
10 0 58431  48240.00000  0   -438035.165  -6647952.388   3675150.770
10 0 58431  48420.00000  0    561185.335  -6926388.930   3033485.263
10 0 58431  48600.00000  0   1538871.399  -7027179.436   2301973.813
10 0 58431  48780.00000  0   2470481.753  -6943988.226   1501478.564
10 0 58431  48960.00000  0   3332209.354  -6675123.897    655433.560
10 0 58431  49140.00000  0   4101595.342  -6223908.996   -210724.418
10 0 58431  49320.00000  0   4758181.091  -5598931.774  -1070256.488
10 0 58431  49500.00000  0   5284173.806  -4814135.014  -1895946.150
10 0 58431  49680.00000  0   5665091.693  -3888703.330  -2661025.515
10 0 58431  49860.00000  0   5890348.480  -2846718.043  -3340168.030
10 0 58431  50040.00000  0   5953730.872  -1716563.724  -3910496.160
10 0 58431  50220.00000  0   5853726.989   -530094.055  -4352543.254
10 0 58431  50400.00000  0   5593670.616    678416.376  -4651106.736
10 0 58431  50580.00000  0   5181675.747   1873483.437  -4795928.656
10 0 58431  50760.00000  0   4630358.027   3019716.201  -4782153.259
10 0 58431  50940.00000  0   3956356.582   4083134.769  -4610528.292
10 0 58431  51120.00000  0   3179685.124   5032421.321  -4287335.977
10 0 58431  51300.00000  0   2322955.020   5840030.482  -3824064.364
10 0 58431  51480.00000  0   1410521.342   6483096.922  -3236848.029
10 0 58431  51660.00000  0    467608.349   6944101.382  -2545725.453
10 0 58431  51840.00000  0   -480535.605   7211276.418  -1773767.962
10 0 58431  52020.00000  0  -1409407.166   7278753.950   -946142.540
10 0 58431  52200.00000  0  -2295909.291   7146482.537    -89168.282
10 0 58431  52380.00000  0  -3118890.323   6819954.568    770588.384
10 0 58431  52560.00000  0  -3859556.822   6309781.745   1607147.635
10 0 58431  52740.00000  0  -4501761.513   5631161.295   2395851.874
10 0 58431  52920.00000  0  -5032181.290   4803277.697   3113990.067
10 0 58431  53100.00000  0  -5440403.824   3848675.200   3741310.599
10 0 58431  53280.00000  0  -5718945.381   2792627.588   4260431.075
10 0 58431  53460.00000  0  -5863219.372   1662518.510   4657156.711
10 0 58431  53640.00000  0  -5871472.493    487241.032   4920719.026
10 0 58431  53820.00000  0  -5744704.052   -703382.474   5043948.527
10 0 58431  54000.00000  0  -5486578.783  -1879166.919   5023392.334
10 0 58431  54180.00000  0  -5103338.008  -3010127.626   4859382.812
10 0 58431  54360.00000  0  -4603708.317  -4067051.202   4556058.455
10 0 58431  54540.00000  0  -3998802.826  -5022082.712   4121333.738
10 0 58431  54720.00000  0  -3302007.867  -5849335.523   3566810.529
10 0 58431  54900.00000  0  -2528843.693  -6525527.161   2907619.056
10 0 58431  55080.00000  0  -1696784.362  -7030636.089   2162173.166
10 0 58431  55260.00000  0   -825021.380  -7348565.794   1351824.278
10 0 58431  55440.00000  0     65843.899  -7467792.964    500398.295
10 0 58431  55620.00000  0    954191.284  -7381963.652   -366396.172
10 0 58431  55800.00000  0   1817860.273  -7090392.512  -1221689.999
10 0 58431  55980.00000  0   2634712.779  -6598416.053  -2038295.593
10 0 58431  56160.00000  0   3383267.673  -5917551.375  -2789645.168
10 0 58431  56340.00000  0   4043384.978  -5065413.751  -3450788.608
10 0 58431  56520.00000  0   4596961.464  -4065358.204  -3999396.633
10 0 58431  56700.00000  0   5028594.349  -2945838.743  -4416707.042
10 0 58431  56880.00000  0   5326169.813  -1739500.142  -4688350.191
10 0 58431  57060.00000  0   5481337.566   -482041.093  -4804994.941
10 0 58431  57240.00000  0   5489835.864    789095.164  -4762765.879
10 0 58431  57420.00000  0   5351638.837   2036122.161  -4563398.075
10 0 58431  57600.00000  0   5070920.957   3222313.108  -4214123.038
10 0 58431  57780.00000  0   4655846.757   4313324.513  -3727299.150
10 0 58431  57960.00000  0   4118204.135   5278364.931  -3119816.907
10 0 58431  58140.00000  0   3472913.609   6091148.764  -2412328.590
10 0 58431  58320.00000  0   2737451.741   6730600.652  -1628362.228
10 0 58431  58500.00000  0   1931229.951   7181299.449   -793378.048
10 0 58431  58680.00000  0   1074964.648   7433668.473     66177.507
10 0 58431  58860.00000  0    190074.491   7483936.911    923770.197
10 0 58431  59040.00000  0   -701869.992   7333916.339   1753593.921
10 0 58431  59220.00000  0  -1579634.048   6990637.654   2531286.509
10 0 58431  59400.00000  0  -2422740.445   6465886.168   3234536.041
10 0 58431  59580.00000  0  -3211824.115   5775672.873   3843576.177
10 0 58431  59760.00000  0  -3928926.653   4939675.099   4341578.637
10 0 58431  59940.00000  0  -4557743.647   3980670.153   4714955.546
10 0 58431  60120.00000  0  -5083838.782   2923973.448   4953585.717
10 0 58431  60300.00000  0  -5494835.994   1796884.477   5050976.347
10 0 58431  60480.00000  0  -5780599.039    628140.959   5004368.790
10 0 58431  60660.00000  0  -5933407.598   -552624.015   4814795.604
10 0 58431  60840.00000  0  -5948135.386  -1715431.890   4487090.780
10 0 58431  61020.00000  0  -5822430.725  -2830528.218   4029848.951
10 0 58431  61200.00000  0  -5556893.249  -3868981.764   3455324.502
10 0 58431  61380.00000  0  -5155236.265  -4803319.332   2779258.021
10 0 58431  61560.00000  0  -4624419.522  -5608196.986   2020614.286
10 0 58431  61740.00000  0  -3974731.067  -6261101.128   1201215.627
10 0 58431  61920.00000  0  -3219794.039  -6743062.490    345256.834
10 0 58431  62100.00000  0  -2376473.145  -7039356.483   -521307.679
10 0 58431  62280.00000  0  -1464656.278  -7140152.390  -1371505.806
10 0 58431  62460.00000  0   -506890.548  -7041064.358  -2178207.258
10 0 58431  62640.00000  0    472136.446  -6743551.207  -2915073.997
10 0 58431  62820.00000  0   1446264.543  -6255115.764  -3557560.167
10 0 58431  63000.00000  0   2388659.846  -5589263.104  -4083908.372
10 0 58431  63180.00000  0   3272710.100  -4765192.296  -4476080.341
10 0 58431  63360.00000  0   4072972.478  -3807214.830  -4720557.486
10 0 58431  63540.00000  0   4766112.041  -2743915.997  -4808948.704
10 0 58431  63720.00000  0   5331769.920  -1607108.350  -4738361.422
10 0 58431  63900.00000  0   5753312.402   -430638.505  -4511513.274
10 0 58431  64080.00000  0   6018415.415    750885.420  -4136574.482
10 0 58431  64260.00000  0   6119447.585   1903362.564  -3626755.033
10 0 58431  64440.00000  0   6053643.208   2994386.657  -2999677.109
10 0 58431  64620.00000  0   5823071.034   3994292.924  -2276581.552
10 0 58431  64800.00000  0   5434414.383   4877017.084  -1481424.324
10 0 58431  64980.00000  0   4898595.584   5620735.840   -639926.437
10 0 58431  65160.00000  0   4230287.078   6208286.050    221367.183
10 0 58431  65340.00000  0   3447348.516   6627375.062   1075976.376
10 0 58431  65520.00000  0   2570227.108   6870606.551   1898288.993
10 0 58431  65700.00000  0   1621352.852   6935354.173   2664258.997
10 0 58431  65880.00000  0    624554.271   6823519.720   3351991.662
10 0 58431  66060.00000  0   -395492.108   6541212.979   3942219.809
10 0 58431  66240.00000  0  -1413774.214   6098382.334   4418680.104
10 0 58431  66420.00000  0  -2405419.949   5508417.885   4768401.083
10 0 58431  66600.00000  0  -3346138.717   4787744.753   4981914.262
10 0 58431  66780.00000  0  -4212639.937   3955419.419   5053403.454
99